[[{"header":{"parameterUnit":"m.s-1","parameterCategory":1,"la1":30.2991,"la2":30.254,"lo1":-89.0895,"lo2":-89.0444,"dy":0.0017,"dx":0.0017,"nx":28,"ny":28,"refTime":"2024-12-09T09:00:00:Z","depth":0,"parameterNumber":2,"parameterNumberName":"U-component_of_WINDS"},"data":[0,0,0,0,0,0,0,0,0,0,0,0,0,0,0,0,0,0,0,0,0,0,0,0,0,0,0,0,0,0,0,0,0,0,0,0,0,0,0,0,0,0,0,0,0,0,0,0,0,0,0,0,0,0,0,0,0,0,1.4995,1.4997,0,1.511,1.5112,1.5113,1.512,1.5118,1.5117,1.5116,1.5241,1.5246,1.525,0,0,0,0,0,0,0,0,0,0,0,0,0,1.4788,1.4792,1.4995,1.4997,1.4998,1.511,1.5112,1.5113,1.512,1.5118,1.5117,1.5115,1.524,1.5245,1.5251,0,0,0,0,0,0,0,0,0,0,0,0,0,1.4888,1.4793,1.4995,1.5015,1.5018,1.511,1.5112,1.5114,1.512,1.5118,1.5116,1.5114,1.5238,1.5245,1.5252,1.5334,0,0,1.5273,1.5276,0,0,0,0,0,0,0,0,1.4883,1.4896,1.501,1.5014,1.5017,1.5098,1.5085,1.5188,1.5121,1.5082,1.5116,1.5113,1.5196,1.5206,1.5232,1.534,1.5345,1.5273,1.5277,1.528,1.5282,0,0,0,0,0,0,0,1.4876,1.4891,1.5041,1.5012,1.5016,1.502,1.5032,1.5104,1.5149,1.5085,1.5086,1.5099,1.5197,1.5226,1.5235,1.5347,1.5273,1.5279,1.5283,1.5286,1.5529,1.5531,0,0,0,0,0,0,1.4864,1.4885,1.5037,1.5044,1.4943,1.5025,1.5039,1.5075,1.5148,1.5157,1.51,1.5099,1.5215,1.5227,1.524,1.5341,1.528,1.5287,1.5291,1.5526,1.5529,1.5532,0,0,0,0,0,0,1.4859,1.4877,1.5033,1.4965,1.4985,1.5031,1.5071,1.5078,1.5106,1.516,1.5168,1.5121,1.5214,1.523,1.531,1.5346,1.529,1.5296,1.5524,1.5527,1.553,1.5545,0,0,0,0,0,0,1.4853,1.4876,1.4906,1.4966,1.4989,1.5099,1.5073,1.5082,1.5117,1.5116,1.5181,1.519,1.5214,1.53,1.5317,1.5354,1.5301,1.5521,1.5525,1.5529,1.5541,1.5548,1.5554,0,0,0,0,0,1.4846,1.4907,1.4907,1.4926,1.5027,1.5101,1.5114,1.5138,1.512,1.5152,1.5186,1.5188,1.5339,1.5308,1.5327,1.5367,1.5519,1.5524,1.5529,1.5538,1.5547,1.5554,0,0,0,0,0,0,1.4854,1.4915,1.4916,1.4998,1.5044,1.5102,1.5143,1.5146,1.52,1.5197,1.5227,1.5242,1.5321,1.5352,1.5317,1.5451,1.5427,1.5436,1.5427,1.5436,1.5442,1.5433,1.5307,0,0,0,0,0,1.4864,1.4917,1.4969,1.5036,1.5059,1.5097,1.513,1.5144,1.5194,1.5214,1.5254,1.5304,1.5363,1.5401,1.5458,1.5546,1.556,1.5583,1.5589,1.5594,1.5602,1.5651,1.5661,1.5549,1.5549,1.5549,0,0,1.4888,1.4928,1.496,1.5039,1.5076,1.5132,1.5113,1.5173,1.5215,1.5224,1.5301,1.5332,1.539,1.5474,1.5513,1.5503,1.5636,1.5601,1.5604,1.561,1.5657,1.5668,1.5677,1.5552,1.5552,1.5551,0,0,1.4959,1.4994,1.5054,1.5091,1.5146,1.5171,1.5185,1.5243,1.5263,1.534,1.5347,1.5399,1.55,1.554,1.5574,1.566,1.5664,1.5678,1.5712,1.5759,1.5768,1.5776,1.5807,1.5818,1.5686,1.5686,1.5686,0,1.4982,1.5064,1.5085,1.5144,1.5179,1.5186,1.5248,1.5284,1.5356,1.5381,1.5367,1.5493,1.5533,1.5626,1.5646,1.5674,1.5692,1.5671,1.5764,1.5773,1.5781,1.5811,1.5822,1.5687,1.5687,1.5687,1.5687,0,1.509,1.5147,1.5189,1.5255,1.5295,1.5355,1.5387,1.5425,1.5435,1.5462,1.5541,1.5589,1.5655,1.5678,1.569,1.5774,1.5765,1.5758,1.5735,1.5792,1.5821,1.5832,1.5689,1.5689,1.5688,1.5688,0,0,1.517,1.5246,1.5261,1.5291,1.5352,1.5398,1.5459,1.5521,1.5553,1.5603,1.5656,1.574,1.5733,1.5772,1.5788,1.583,1.5894,1.5817,1.5819,1.583,1.599,1.5995,1.6007,1.5897,1.5899,1.5901,1.5985,0,1.5248,1.5354,1.5375,1.5468,1.5521,1.5528,1.5582,1.5626,1.5653,1.5703,1.5734,1.5793,1.5779,1.5802,1.5843,1.5878,1.5927,1.5872,1.5948,1.5951,1.5933,1.6022,1.6028,1.6105,1.5996,1.5998,1.5999,0,1.5354,1.5403,1.55,1.5554,1.5577,1.5624,1.5683,1.573,1.5781,1.5798,1.584,1.5852,1.5917,1.589,1.5982,1.5944,1.5976,1.5998,1.6002,1.601,1.5979,1.6034,1.613,1.6141,1.6017,1.6016,1.6014,0,1.5403,1.5494,1.5563,1.5589,1.5653,1.5686,1.5715,1.5763,1.5799,1.5851,1.5875,1.5935,1.5968,1.6015,1.6044,1.6021,1.6133,1.6108,1.615,1.615,1.6174,1.6172,1.6277,1.6194,1.6194,1.6194,1.6194,0,1.5488,1.5548,1.5586,1.5629,1.5696,1.572,1.5787,1.5815,1.5858,1.5909,1.592,1.5967,1.6001,1.6054,1.6077,1.6149,1.6165,1.6181,1.6186,1.618,1.6178,1.6202,1.6198,1.6197,1.6196,1.6196,1.6195,0,1.5554,1.5582,1.5659,1.5712,1.5727,1.5774,1.5821,1.5864,1.589,1.5953,1.597,1.6011,1.6074,1.6106,1.6186,1.6201,1.6283,1.6285,1.6264,1.6267,1.6307,1.6302,1.6431,1.6449,1.6354,1.6355,1.6356,0,1.5607,1.5652,1.571,1.5743,1.5771,1.5825,1.5861,1.5886,1.5924,1.5984,1.6021,1.6083,1.6134,1.6234,1.6273,1.6334,1.6338,1.6379,1.6347,1.6339,1.6339,1.6335,1.634,1.6384,1.6385,1.6386,1.6387,0,1.5697,1.5709,1.5759,1.5814,1.5855,1.5901,1.5946,1.5973,1.6006,1.6048,1.611,1.6149,1.6228,1.6291,1.6354,1.6386,1.6393,1.6396,1.6409,1.6403,1.6389,1.6397,1.628,1.6393,1.6392,1.6392,1.6392,1.6391,1.5759,1.5799,1.5845,1.5901,1.5937,1.5978,1.6021,1.6051,1.6102,1.6167,1.618,1.6246,1.6296,1.6381,1.6415,1.6468,1.646,1.6479,1.6484,1.6488,1.649,1.638,1.648,1.648,1.648,1.648,1.648,0,1.585,1.5879,1.593,1.5991,1.6035,1.6034,1.6084,1.6121,1.6178,1.6223,1.6273,1.6345,1.6405,1.6448,1.6509,1.6544,1.6549,1.656,1.6558,1.6565,1.6494,1.6476,1.6555,1.6555,1.6555,1.6555,1.6555,1.6555,1.5902,1.5971,1.5987,1.6074,1.6104,1.6167,1.6195,1.6234,1.627,1.6349,1.6398,1.6424,1.6469,1.6534,1.6589,1.66,1.6623,1.6634,1.6645,1.6578,1.657,1.6563,1.6546,1.6638,1.6638,1.6712,1.6713,1.6713]},{"header":{"parameterUnit":"m.s-1","parameterCategory":1,"la1":30.2991,"la2":30.254,"lo1":-89.0895,"lo2":-89.0444,"dy":0.0017,"dx":0.0017,"nx":28,"ny":28,"refTime":"2024-12-09T09:00:00:Z","depth":0,"parameterNumber":3,"parameterNumberName":"V-component_of_WINDS"},"data":[0,0,0,0,0,0,0,0,0,0,0,0,0,0,0,0,0,0,0,0,0,0,0,0,0,0,0,0,0,0,0,0,0,0,0,0,0,0,0,0,0,0,0,0,0,0,0,0,0,0,0,0,0,0,0,0,0,0,3.6692,3.6693,0,3.6776,3.6777,3.6778,3.6765,3.6763,3.6762,3.6761,3.6847,3.685,3.6854,0,0,0,0,0,0,0,0,0,0,0,0,0,3.6519,3.6522,3.6692,3.6693,3.6694,3.6776,3.6777,3.6778,3.6765,3.6763,3.6762,3.676,3.6846,3.685,3.6854,0,0,0,0,0,0,0,0,0,0,0,0,0,3.6597,3.6523,3.6691,3.6697,3.6698,3.6775,3.6777,3.6778,3.6765,3.6763,3.6761,3.6759,3.6844,3.685,3.6855,3.6932,0,0,3.6872,3.6874,0,0,0,0,0,0,0,0,3.6593,3.6604,3.6695,3.6697,3.6699,3.6758,3.6747,3.683,3.6766,3.674,3.6761,3.6758,3.6819,3.6826,3.6847,3.6936,3.6939,3.6872,3.6875,3.6878,3.6879,0,0,0,0,0,0,0,3.6587,3.66,3.6725,3.6697,3.6699,3.6695,3.6704,3.6763,3.6791,3.6742,3.6741,3.6752,3.6819,3.6842,3.6849,3.6941,3.6872,3.6877,3.688,3.6882,3.7095,3.7098,0,0,0,0,0,0,3.658,3.6596,3.6722,3.6727,3.6639,3.67,3.671,3.6741,3.679,3.6795,3.6753,3.6751,3.6833,3.6842,3.6852,3.6945,3.6878,3.6883,3.6886,3.7093,3.7096,3.7099,0,0,0,0,0,0,3.6577,3.6592,3.6719,3.6661,3.6677,3.6705,3.674,3.6744,3.6766,3.6798,3.6803,3.6771,3.6832,3.6844,3.6912,3.6948,3.6885,3.689,3.709,3.7094,3.7097,3.7131,0,0,0,0,0,0,3.6572,3.6591,3.6621,3.6662,3.668,3.6778,3.6742,3.6747,3.6775,3.6773,3.6816,3.6821,3.6831,3.6904,3.6917,3.6954,3.6895,3.7087,3.7092,3.7096,3.7127,3.7136,3.7143,0,0,0,0,0,3.6566,3.6627,3.6622,3.6638,3.6718,3.678,3.679,3.6801,3.6778,3.6808,3.6829,3.682,3.6941,3.6911,3.6926,3.6965,3.7085,3.7091,3.7096,3.7124,3.7134,3.7143,0,0,0,0,0,0,3.659,3.6633,3.6628,3.6704,3.6739,3.6778,3.6816,3.6811,3.6853,3.6849,3.6859,3.6869,3.6938,3.6958,3.6923,3.7041,3.701,3.7018,3.7026,3.7036,3.7044,3.7038,3.6899,0,0,0,0,0,3.6603,3.665,3.6685,3.6749,3.6767,3.6788,3.6816,3.682,3.6856,3.6871,3.6896,3.6931,3.6977,3.7007,3.7051,3.7129,3.7138,3.7163,3.7171,3.7177,3.7185,3.7228,3.7239,3.7116,3.7116,3.7116,0,0,3.6633,3.6663,3.6692,3.6755,3.6782,3.683,3.6801,3.6853,3.6889,3.6879,3.6944,3.6964,3.7003,3.7076,3.711,3.7095,3.7221,3.7184,3.7189,3.7194,3.7234,3.7246,3.7256,3.712,3.7119,3.7119,0,0,3.6713,3.6739,3.6796,3.6823,3.6864,3.6878,3.6891,3.6931,3.6943,3.7009,3.7002,3.7044,3.7123,3.7152,3.7176,3.7264,3.7257,3.7277,3.732,3.7361,3.737,3.7379,3.7411,3.7422,3.7285,3.7285,3.7285,0,3.6745,3.6817,3.6825,3.6878,3.6906,3.6898,3.6955,3.6981,3.7034,3.7053,3.7036,3.7134,3.716,3.7239,3.7261,3.7281,3.7296,3.7274,3.7368,3.7377,3.7385,3.7416,3.7427,3.7287,3.7287,3.7287,3.7286,0,3.6855,3.6905,3.6945,3.6997,3.7029,3.7083,3.7099,3.713,3.7131,3.7147,3.7213,3.7243,3.7293,3.7312,3.7314,3.7391,3.7381,3.7366,3.7335,3.7399,3.7428,3.7439,3.729,3.729,3.7289,3.7288,0,0,3.6955,3.7008,3.7023,3.7046,3.7089,3.7128,3.7181,3.723,3.7257,3.7292,3.7338,3.7403,3.7389,3.7417,3.7421,3.7457,3.7525,3.7437,3.7438,3.7453,3.7612,3.7625,3.7638,3.7519,3.7522,3.7524,3.7609,0,3.7039,3.7134,3.7142,3.7227,3.7273,3.7265,3.7311,3.7343,3.7358,3.7399,3.7415,3.7461,3.7439,3.7455,3.749,3.7509,3.7557,3.7503,3.7562,3.7564,3.7555,3.7653,3.7667,3.7747,3.7621,3.7622,3.7624,0,3.7151,3.719,3.728,3.7316,3.7336,3.7378,3.7422,3.7461,3.7496,3.7504,3.7534,3.7533,3.7587,3.7553,3.7627,3.759,3.7614,3.7627,3.763,3.7638,3.7599,3.7665,3.7773,3.7785,3.7641,3.764,3.7639,0,3.7216,3.7291,3.7355,3.7374,3.7418,3.7447,3.7466,3.7499,3.7527,3.7565,3.7583,3.7627,3.7652,3.7685,3.7696,3.767,3.777,3.7736,3.7779,3.7779,3.7803,3.7801,3.7917,3.7815,3.7815,3.7815,3.7814,0,3.7311,3.7367,3.7384,3.7424,3.7485,3.7493,3.7553,3.7571,3.7599,3.7641,3.7636,3.7675,3.7686,3.7727,3.7735,3.7796,3.7807,3.7815,3.7817,3.7817,3.7816,3.7834,3.7829,3.7818,3.7817,3.7817,3.7816,0,3.7395,3.7409,3.7478,3.7513,3.7523,3.7567,3.7596,3.7634,3.7646,3.77,3.7712,3.7733,3.7781,3.7794,3.7851,3.7856,3.7928,3.7924,3.7917,3.7917,3.7959,3.7956,3.8093,3.8111,3.7996,3.7997,3.7998,0,3.7456,3.7499,3.7537,3.7565,3.7586,3.763,3.7659,3.7666,3.7696,3.7738,3.777,3.7817,3.7856,3.7932,3.7952,3.7996,3.7993,3.8038,3.8,3.7998,3.7995,3.7993,3.7998,3.8046,3.8047,3.8048,3.8049,0,3.7563,3.7567,3.7608,3.7652,3.7685,3.772,3.7753,3.7776,3.7788,3.7821,3.787,3.79,3.7957,3.8004,3.8048,3.8067,3.8061,3.806,3.8073,3.8074,3.8069,3.8073,3.7938,3.8058,3.8057,3.8056,3.8056,3.8056,3.7638,3.7675,3.7708,3.7754,3.7779,3.781,3.7847,3.7863,3.7904,3.7952,3.7953,3.8007,3.8038,3.8096,3.8117,3.8158,3.8145,3.8163,3.8167,3.8172,3.8176,3.806,3.8166,3.8166,3.8166,3.8165,3.8165,0,3.7746,3.7766,3.7807,3.7854,3.7889,3.7878,3.7914,3.7944,3.7991,3.8021,3.8058,3.8114,3.8158,3.8181,3.8225,3.8253,3.8251,3.8265,3.8264,3.8268,3.8185,3.8171,3.8266,3.8266,3.8266,3.8266,3.8266,3.8266,3.7806,3.7869,3.7876,3.7951,3.797,3.8022,3.8043,3.8071,3.8095,3.8157,3.8194,3.8208,3.8234,3.828,3.832,3.8325,3.8342,3.8358,3.8362,3.8284,3.8274,3.8265,3.8251,3.8361,3.8361,3.8441,3.8442,3.8443]}]]